Location: Bastelaar
(51.0950°N, 3.8602°E)
Time: 16:23:02
(UTC+00:00)

Cosmos 407 Rocket - Pass Details

Date: 18 November 2025
Orbit: 740 x 780 km, 74.0° (Epoch: 09 December)

Event Time Altitude Azimuth Distance (km) Brightness Sun altitude
Rises 18:05:15 0° 221° (SW) 3,204 7.4 -20.5°
Reaches altitude 10° 18:07:42 10° 227° (SW) 2,277 6.7 -20.9°
Maximum altitude 18:12:40 48° 301° (WNW) 984 4.3 -21.6°
Enters shadow 18:17:05 13° 14° (NNE) 2,068 5.6 -22.3°
